Find Starlink 32318

NORAD ID: 61864 Int'l Des: 2024-202 Owner: SPXS Country: US Constellation: starlink operational
LEOCIRCULAR

リアルタイム位置

3D地球を読み込み中...

Starlink 32318について

説明を読み込み中...

次回通過

Passes for default location (London). Set your location on the main map for personalized predictions.

高度履歴

Loading altitude history...

軌道要素

1 61864U 24202V 26126.42263608 -.00001236 00000-0 -35430-4 0 9996
2 61864 42.9965 272.2413 0001002 85.1887 274.9079 15.27564991 84169
Epoch: May 6, 2026 • Age: 16 hours

現在のステータス

高度 485.3 km
速度 7.63 km/s
衛星直下点 42.10°N, 114.8°E
打ち上げ日 Nov 7, 2024
運用期間 1.4 years
タイプ internet

技術仕様

分類 Payload
質量 730.00 kg
乾燥質量 700.00 kg
総質量 730.00 kg
長さ 0.30 m
直径 4.10 m
スパン 29.00 m
形状 Box + pan
製造者 SPXS
バスタイプ Starlink V2M
フェーズステータス In Orbit
所有者/国 SPXS/US

Most Searched